Weather History for Middlesboro, KY

Change the Weather History Date:

Tuesday, November 27, 2012

  Actual Average (KLOZ) Record (KLOZ)
Temperature  
Mean Temperature 44 °F 44 °F  
Max Temperature 46 °F 54 °F 76 °F (1990)
Min Temperature 39 °F 34 °F 17 °F (1977)
Degree Days  
Heating Degree Days 22 21  
Month to date heating degree days 459  
Since 1 July heating degree days 765  
Cooling Degree Days 0 0  
Month to date cooling degree days 0  
Year to date cooling degree days 1188  
Moisture  
Dew Point 41 °F    
Average Humidity 88    
Maximum Humidity 100    
Minimum Humidity 76    
Precipitation  
Precipitation 0.00 in 0.14 in 2.28 in (1973)
Month to date precipitation 3.39  
Year to date precipitation 42.46  
Sea Level Pressure  
Sea Level Pressure 30.23 in    
Wind  
Wind Speed 3 mph (North)    
Max Wind Speed 9 mph    
Max Gust Speed -    
Visibility 8 miles    
Events Rain    
T = Trace of Precipitation, MM = Missing Value Source: NWS Daily Summary

Daily Weather History Graph

Daily Weather History Graph

Search for Another Location

Airport:

Trip Planner

Search our weather history database for the weather conditions in past years. The results will help you decide how hot, cold, wet, or windy it might be!

Date:

Astronomy

Nov. 27, 2012 Rise Set
Actual Time 6:25 AM CST 4:20 PM CST
Civil Twilight 5:57 AM CST 4:48 PM CST
Nautical Twilight 5:25 AM CST 5:20 PM CST
Astronomical Twilight 4:54 AM CST 5:51 PM CST
Moon 3:50 PM CST (11/27) 5:30 AM CST (11/27)
Length of Visible Light 10h 51m
Length of Day
9h 54m
Waxing Gibbous, 99% of the Moon is Illuminated
Nov 27
Waxing Gibbous
Nov 28
Full
Dec 6
Last Quarter
Dec 13
New
Dec 19
First Quarter

Hourly Weather History & Observations

Time (CST) Temp. Windchill Dew Point Humidity Pressure Visibility Wind Dir Wind Speed Gust Speed Precip Events Conditions
12:15 AM 46.4 °F - 46.4 °F 100% 30.14 in 4.0 mi Calm Calm - N/A Rain Light Rain
4:15 AM 46.4 °F - 44.6 °F 93% 30.12 in 4.0 mi Calm Calm - N/A   Light Drizzle
4:35 AM 46.4 °F - 46.4 °F 100% 30.12 in 2.5 mi Calm Calm - N/A Rain Rain
4:55 AM 46.4 °F - 44.6 °F 93% 30.13 in 3.0 mi Calm Calm - N/A   Light Drizzle
5:15 AM 46.4 °F - 46.4 °F 100% 30.13 in 4.0 mi Calm Calm - N/A   Overcast
6:15 AM 46.4 °F 45.2 °F 46.4 °F 100% 30.15 in 5.0 mi North 3.5 mph - N/A Rain Rain
6:35 AM 46.4 °F 45.2 °F 46.4 °F 100% 30.16 in 10.0 mi North 3.5 mph - N/A   Overcast
6:55 AM 46.4 °F 44.3 °F 46.4 °F 100% 30.16 in 10.0 mi North 4.6 mph - N/A   Overcast
7:15 AM 46.4 °F - 44.6 °F 93% 30.17 in 10.0 mi Calm Calm - N/A   Mostly Cloudy
7:35 AM 46.4 °F 44.3 °F 44.6 °F 93% 30.19 in 10.0 mi North 4.6 mph - N/A   Unknown
7:55 AM 44.6 °F 42.2 °F 44.6 °F 100% 30.20 in 10.0 mi North 4.6 mph - N/A   Overcast
8:15 AM 44.6 °F 42.2 °F 44.6 °F 100% 30.20 in 10.0 mi North 4.6 mph - N/A   Unknown
8:35 AM 44.6 °F 40.7 °F 44.6 °F 100% 30.21 in 10.0 mi North 6.9 mph - N/A   Overcast
8:55 AM 44.6 °F 42.2 °F 44.6 °F 100% 30.22 in 10.0 mi North 4.6 mph - N/A   Unknown
9:15 AM 44.6 °F 40.7 °F 44.6 °F 100% 30.23 in 10.0 mi North 6.9 mph - N/A   Overcast
9:35 AM 44.6 °F 40.7 °F 44.6 °F 100% 30.23 in 10.0 mi North 6.9 mph - N/A   Overcast
9:55 AM 44.6 °F 41.4 °F 42.8 °F 93% 30.24 in 10.0 mi North 5.8 mph - N/A   Overcast
10:15 AM 44.6 °F - 42.8 °F 93% 30.24 in 10.0 mi Calm Calm - N/A   Overcast
10:35 AM 46.4 °F 41.9 °F 42.8 °F 87% 30.24 in 10.0 mi North 9.2 mph - N/A   Overcast
10:55 AM 46.4 °F 42.4 °F 42.8 °F 87% 30.23 in 10.0 mi North 8.1 mph - N/A   Overcast
11:15 AM 46.4 °F 42.4 °F 42.8 °F 87% 30.23 in 10.0 mi North 8.1 mph - N/A   Overcast
11:35 AM 44.6 °F 40.7 °F 42.8 °F 93% 30.23 in 10.0 mi NNE 6.9 mph - N/A   Overcast
11:55 AM 44.6 °F 42.2 °F 42.8 °F 93% 30.23 in 1.0 mi NNW 4.6 mph - N/A   Overcast
12:15 PM 44.6 °F 40.7 °F 42.8 °F 93% 30.23 in 1.0 mi North 6.9 mph - N/A   Overcast
12:35 PM 44.6 °F 40.7 °F 42.8 °F 93% 30.22 in 1.0 mi North 6.9 mph - N/A   Overcast
12:55 PM 44.6 °F 40.7 °F 41.0 °F 87% 30.22 in 1.0 mi North 6.9 mph - N/A   Overcast
1:15 PM 44.6 °F 39.7 °F 41.0 °F 87% 30.21 in 10.0 mi North 9.2 mph - N/A   Overcast
1:35 PM 44.6 °F 41.4 °F 41.0 °F 87% 30.21 in 1.0 mi North 5.8 mph - N/A   Overcast
1:55 PM 44.6 °F 42.2 °F 39.2 °F 81% 30.21 in 10.0 mi North 4.6 mph - N/A   Overcast
2:15 PM 44.6 °F 40.7 °F 39.2 °F 81% 30.21 in 1.0 mi NNW 6.9 mph - N/A   Overcast
2:35 PM 44.6 °F 43.1 °F 39.2 °F 81% 30.21 in 1.0 mi NNW 3.5 mph - N/A   Overcast
2:55 PM 44.6 °F - 39.2 °F 81% 30.22 in 10.0 mi Calm Calm - N/A   Overcast
3:15 PM 44.6 °F 42.2 °F 39.2 °F 81% 30.22 in 10.0 mi North 4.6 mph - N/A   Overcast
3:35 PM 44.6 °F 40.2 °F 39.2 °F 81% 30.23 in 10.0 mi NNW 8.1 mph - N/A   Overcast
4:15 PM 42.8 °F 39.3 °F 39.2 °F 87% 30.24 in 10.0 mi North 5.8 mph - N/A   Overcast
4:35 PM 42.8 °F 40.1 °F 37.4 °F 81% 30.24 in 10.0 mi North 4.6 mph - N/A   Overcast
4:55 PM 42.8 °F 39.3 °F 39.2 °F 87% 30.25 in 10.0 mi North 5.8 mph - N/A   Overcast
5:15 PM 42.8 °F 38.6 °F 37.4 °F 81% 30.27 in 10.0 mi North 6.9 mph - N/A   Overcast
5:55 PM 42.8 °F - 37.4 °F 81% 30.27 in 10.0 mi North - - N/A   Overcast
6:15 PM 42.8 °F 40.1 °F 37.4 °F 81% 30.28 in 10.0 mi NNW 4.6 mph - N/A   Overcast
6:35 PM 42.8 °F - 37.4 °F 81% 30.28 in 10.0 mi North - - N/A   Overcast
7:15 PM 42.8 °F - 35.6 °F 76% 30.29 in 10.0 mi Calm Calm - N/A   Overcast
7:35 PM 42.8 °F 40.1 °F 35.6 °F 76% 30.30 in 10.0 mi NNW 4.6 mph - N/A   Overcast
7:55 PM 42.8 °F - 35.6 °F 76% 30.29 in 10.0 mi Calm Calm - N/A   Overcast
8:15 PM 42.8 °F 40.1 °F 35.6 °F 76% 30.29 in 10.0 mi NW 4.6 mph - N/A   Overcast
8:35 PM 42.8 °F - 35.6 °F 76% 30.29 in 10.0 mi Calm Calm - N/A   Overcast
8:55 PM 41.0 °F 37.1 °F 35.6 °F 81% 30.30 in 10.0 mi NNW 5.8 mph - N/A   Overcast
9:15 PM 41.0 °F - 35.6 °F 81% 30.30 in 10.0 mi Calm Calm - N/A   Overcast
9:55 PM 41.0 °F - 35.6 °F 81% 30.30 in 10.0 mi Calm Calm - N/A   Overcast
10:15 PM 41.0 °F 39.0 °F 35.6 °F 81% 30.30 in 10.0 mi NW 3.5 mph - N/A   Overcast
10:55 PM 41.0 °F - 35.6 °F 81% 30.30 in 10.0 mi Calm Calm - N/A   Overcast
11:15 PM 41.0 °F 39.0 °F 35.6 °F 81% 30.29 in 10.0 mi NW 3.5 mph - N/A   Overcast
11:55 PM 39.2 °F - 33.8 °F 81% 30.28 in 10.0 mi Calm Calm - N/A   Overcast